• MPC Preparation (Info)

  • MPEC 2016-O178: 2015 CL62

    The following Minor Planet Electronic Circular may be linked-to from your own Web pages, but must not otherwise be redistributed electronically.

    A form allowing access to any MPEC is at the bottom of this page.


    Read MPEC 2016-O177 Read MPEC 2016-O179


    M.P.E.C. 2016-O178                               Issued 2016 July 17, 10:08 UT
    
         The Minor Planet Electronic Circulars contain information on unusual
             minor planets and routine data on comets.  They are published
        on behalf of Division F of the International Astronomical Union by the
              Minor Planet Center, Smithsonian Astrophysical Observatory,
                              Cambridge, MA 02138, U.S.A.
    
                 Prepared using the Tamkin Foundation Computer Network
    
                                  MPC@CFA.HARVARD.EDU
                URL https://www.minorplanetcenter.net/    ISSN 1523-6714
    
                                       2015 CL62
    
    Observations:
         K15C62L  C2011 01 30.47326 08 42 54.956+28 35 11.39         22.2 wLEO178F51
         K15C62L  C2011 01 30.48838 08 42 54.864+28 35 11.75         22.4 wLEO178F51
         K15C62L  C2011 01 30.50467 08 42 54.765+28 35 11.99         22.1 wLEO178F51
         K15C62L  C2011 01 30.51978 08 42 54.671+28 35 12.22         22.3 wLEO178F51
         K15C62L  C2012 02 13.30397 08 47 50.711+27 46 35.06         22.0 wLEO178F51
         K15C62L  C2012 02 13.31850 08 47 50.616+27 46 35.25         22.0 wLEO178F51
         K15C62L  C2012 02 13.33304 08 47 50.530+27 46 35.52         22.1 wLEO178F51
         K15C62L  C2012 02 13.34764 08 47 50.446+27 46 35.67         21.9 wLEO178F51
         K15C62L* C2015 02 12.33992 09 06 27.060+25 03 10.23         21.9 wLEO178F51
         K15C62L  C2015 02 12.35391 09 06 26.983+25 03 10.48         22.5 wLEO178F51
         K15C62L  C2015 02 12.36614 09 06 26.922+25 03 10.61         22.3 wLEO178F51
         K15C62L  C2015 02 12.37839 09 06 26.846+25 03 10.81         22.3 wLEO178F51
         K15C62L  C2015 02 18.33101 09 05 52.539+25 04 42.16         22.3 wLEO178F51
         K15C62L  C2015 02 18.34362 09 05 52.498+25 04 42.33         22.4 wLEO178F51
         K15C62L  C2015 02 18.35623 09 05 52.404+25 04 42.50         22.2 wLEO178F51
         K15C62L  C2015 02 18.36897 09 05 52.326+25 04 42.63         22.1 wLEO178F51
         K15C62L  C2015 03 14.25668 09 03 50.685+25 08 17.97         22.2 wLEO178F51
         K15C62L  C2015 03 14.27026 09 03 50.622+25 08 17.92         22.3 wLEO178F51
         K15C62L  C2015 03 14.28383 09 03 50.567+25 08 17.93         22.5 wLEO178F51
         K15C62L  C2015 03 14.29801 09 03 50.488+25 08 18.22         22.2 wLEO178F51
         K15C62L  C2015 03 15.23810 09 03 46.455+25 08 21.12         22.1 wLEO178F51
         K15C62L  C2015 03 15.25126 09 03 46.404+25 08 21.12         22.1 wLEO178F51
         K15C62L  C2015 03 15.26404 09 03 46.348+25 08 21.23         22.0 wLEO178F51
         K15C62L  C2015 03 15.27683 09 03 46.295+25 08 21.24         22.1 wLEO178F51
    
    Observer details:
    F51 Pan-STARRS 1, Haleakala.  Observers B. Gibson, T. Goggia, N. Primak,
        A. Schultz, M. Willman.  Measurers K. Chambers, S. Chastel, Y.-T. Chen,
        L. Denneau, H. Flewelling, M. Holman, M. Huber, R. Jedicke, M. Lackner,
        E. Lilly, H.-W. Lin, E. Magnier, M. Micheli, M. Payne, P. Veres,
        R. Wainscoat, C. Waters, R. Weryk.  1.8-m Ritchey-Chretien + CCD.
    
    Orbital elements:
    2015 CL62
    Epoch 2016 July 31.0 TT = JDT 2457600.5                 MPC
    M 322.02886              (2000.0)            P               Q
    n   0.00364663     Peri.  207.06171     -0.98862718     +0.06901973
    a  41.8030571      Node   335.75388     +0.03452120     -0.76058660
    e   0.1433453      Incl.   18.98771     -0.14637141     -0.64555736
    P 270              H    6.3           G   0.15           U   2
    Residuals in seconds of arc
    110130 F51  0.0   0.0     150212 F51  0.2-  0.0     150314 F51  0.1+  0.0
    110130 F51  0.0   0.1+    150212 F51  0.1-  0.0     150314 F51  0.1+  0.1-
    110130 F51  0.0   0.1+    150212 F51  0.0   0.1-    150314 F51  0.1+  0.2-
    110130 F51  0.0   0.1+    150212 F51  0.0   0.1-    150314 F51  0.1-  0.1+
    120213 F51  0.0   0.1-    150218 F51  0.1-  0.1+    150315 F51  0.1-  0.0
    120213 F51  0.1-  0.1-    150218 F51  0.4+  0.1+    150315 F51  0.1-  0.0
    120213 F51  0.1-  0.0     150218 F51  0.1+  0.1+    150315 F51  0.1-  0.0
    120213 F51  0.0   0.0     150218 F51  0.0   0.0     150315 F51  0.0   0.0
    
    Ephemeris:
    2015 CL62                a,e,i = 41.80, 0.14, 19                 q = 35.811
    Date    TT    R. A. (2000) Decl.     Delta      r     Elong.  Phase     V
    2016 06 17    09 10 26.6 +23 43 50  38.1604 37.4794    47.3     1.1    22.2
    ...
    2016 07 02    09 11 51.0 +23 34 41  38.3172 37.4750    33.6     0.9    22.2
    ...
    2016 07 10    09 12 41.6 +23 29 38  38.3802 37.4727    26.5     0.7    22.2
    ...
    2016 07 16    09 13 21.6 +23 25 49  38.4170 37.4709    21.2     0.6    22.2
    2016 07 17    09 13 28.4 +23 25 11  38.4222 37.4706    20.3     0.5    22.2
    2016 07 18    09 13 35.2 +23 24 33  38.4272 37.4703    19.4     0.5    22.2
    ...
    2016 07 24    09 14 16.9 +23 20 44  38.4516 37.4686    14.4     0.4    22.2
    ...
    2016 08 01    09 15 13.8 +23 15 43  38.4692 37.4662     8.7     0.2    22.2
    ...
    2016 08 16    09 17 01.9 +23 06 41  38.4547 37.4618    11.2     0.3    22.2
    
    A. U. Tomatic                (C) Copyright 2016 MPC           M.P.E.C. 2016-O178
    

    Read MPEC 2016-O177 Read MPEC 2016-O179


    MPEC number:

    Enter an MPEC number in one of the following forms:

    • 1997-B01 (the full form)
    • J97B01 (the packed version of the full form)
    • B01 (the abbreviated form)